| time (UTC) | temp C | wind direction | speed KPH | gust KPH | rain 1hr cm | rain 24hr cm | rain mn cm | humidity % | barometer mb |
| 20260505041513 | 18 | 167 | 8.0 | 17.7 | 0.00 | 0.00 | 0.00 | 56 | 1001.0 |
| 20260505041009 | 18 | 180 | 8.0 | 17.7 | 0.00 | 0.00 | 0.00 | 56 | 1001.2 |
| 20260505040508 | 18 | 188 | 6.4 | 24.1 | 0.00 | 0.00 | 0.00 | 55 | 1001.2 |
| 20260505040011 | 18 | 200 | 8.0 | 27.4 | 0.00 | 0.00 | 0.00 | 55 | 1001.5 |
| 20260505035506 | 18 | 215 | 8.0 | 27.4 | 0.00 | 0.00 | 0.00 | 56 | 1001.6 |
| 20260505035006 | 18 | 211 | 9.7 | 27.4 | 0.00 | 0.00 | 0.00 | 54 | 1001.1 |
| 20260505034505 | 17 | 157 | 9.7 | 27.4 | 0.00 | 0.00 | 0.00 | 50 | 1001.2 |
| 20260505034007 | 17 | 155 | 8.0 | 25.7 | 0.00 | 0.00 | 0.00 | 51 | 1001.1 |
| 20260505033508 | 16 | 247 | 8.0 | 16.1 | 0.00 | 0.00 | 0.00 | 54 | 1001.2 |
| 20260505033005 | 15 | 165 | 3.2 | 9.7 | 0.00 | 0.00 | 0.00 | 56 | 1001.1 |
| 20260505032505 | 15 | 160 | 3.2 | 9.7 | 0.00 | 0.00 | 0.00 | 59 | 1001.1 |
| 20260505032004 | 14 | 170 | 3.2 | 8.0 | 0.00 | 0.00 | 0.00 | 61 | 1001.1 |
| 20260505031504 | 14 | 166 | 3.2 | 8.0 | 0.00 | 0.00 | 0.00 | 63 | 1001.2 |
| 20260505031005 | 13 | 156 | 1.6 | 4.8 | 0.00 | 0.00 | 0.00 | 65 | 1001.2 |
| 20260505030504 | 13 | 156 | 1.6 | 4.8 | 0.00 | 0.00 | 0.00 | 67 | 1001.2 |
| 20260505030004 | 13 | 156 | 1.6 | 4.8 | 0.00 | 0.00 | 0.00 | 67 | 1001.2 |
| 20260505025506 | 13 | 156 | 1.6 | 4.8 | 0.00 | 0.00 | 0.00 | 65 | 1001.2 |
| 20260505025004 | 13 | 156 | 1.6 | 4.8 | 0.00 | 0.00 | 0.00 | 68 | 1001.1 |
| 20260505024508 | 13 | 156 | 1.6 | 4.8 | 0.00 | 0.00 | 0.00 | 69 | 1001.1 |
| 20260505024002 | 13 | 156 | 1.6 | 4.8 | 0.00 | 0.00 | 0.00 | 69 | 1001.2 |
| 20260505023503 | 13 | 156 | 1.6 | 4.8 | 0.00 | 0.00 | 0.00 | 69 | 1001.3 |
| 20260505023003 | 13 | 156 | 1.6 | 4.8 | 0.00 | 0.00 | 0.00 | 68 | 1001.3 |
| 20260505022506 | 12 | 156 | 3.2 | 4.8 | 0.00 | 0.00 | 0.00 | 69 | 1001.4 |
| 20260505022004 | 12 | 156 | 1.6 | 8.0 | 0.00 | 0.00 | 0.00 | 68 | 1001.4 |
| 20260505021503 | 12 | 156 | 3.2 | 8.0 | 0.00 | 0.00 | 0.00 | 69 | 1001.6 |
| 20260505021004 | 12 | 156 | 3.2 | 8.0 | 0.00 | 0.00 | 0.00 | 69 | 1001.5 |
| 20260505020502 | 12 | 156 | 3.2 | 8.0 | 0.00 | 0.00 | 0.00 | 69 | 1001.7 |
| 20260505020002 | 12 | 156 | 3.2 | 8.0 | 0.00 | 0.00 | 0.00 | 68 | 1001.7 |
| 20260505015502 | 13 | 156 | 3.2 | 8.0 | 0.00 | 0.00 | 0.00 | 68 | 1001.8 |
| 20260505015001 | 13 | 156 | 3.2 | 8.0 | 0.00 | 0.00 | 0.00 | 67 | 1001.8 |
| 20260505014501 | 13 | 155 | 3.2 | 8.0 | 0.00 | 0.00 | 0.00 | 66 | 1001.8 |
| 20260505014003 | 13 | 155 | 4.8 | 8.0 | 0.00 | 0.00 | 0.00 | 66 | 1001.7 |
| 20260505013501 | 13 | 152 | 4.8 | 8.0 | 0.00 | 0.00 | 0.00 | 65 | 1001.5 |
| 20260505013000 | 13 | 149 | 4.8 | 8.0 | 0.00 | 0.00 | 0.00 | 65 | 1001.6 |
| 20260505012600 | 13 | 144 | 3.2 | 6.4 | 0.00 | 0.00 | 0.00 | 66 | 1001.5 |
| 20260505012100 | 13 | 117 | 3.2 | 4.8 | 0.00 | 0.00 | 0.00 | 65 | 1001.5 |
| 20260505011601 | 13 | 117 | 3.2 | 4.8 | 0.00 | 0.00 | 0.00 | 65 | 1001.5 |
| 20260505011102 | 13 | 117 | 3.2 | 4.8 | 0.00 | 0.00 | 0.00 | 67 | 1001.5 |
| 20260505010559 | 13 | 117 | 1.6 | 4.8 | 0.00 | 0.00 | 0.00 | 68 | 1001.5 |
| 20260505010059 | 13 | 117 | 1.6 | 3.2 | 0.00 | 0.00 | 0.00 | 66 | 1001.4 |
| 20260505005559 | 13 | 117 | 1.6 | 3.2 | 0.00 | 0.03 | 0.00 | 63 | 1001.4 |
| 20260505005059 | 13 | 117 | 1.6 | 3.2 | 0.00 | 0.03 | 0.00 | 63 | 1001.4 |
| 20260505004557 | 14 | 117 | 1.6 | 3.2 | 0.00 | 0.03 | 0.00 | 61 | 1001.4 |
| 20260505004057 | 14 | 117 | 1.6 | 3.2 | 0.00 | 0.03 | 0.00 | 60 | 1001.4 |
| 20260505003556 | 14 | 117 | 1.6 | 3.2 | 0.00 | 0.03 | 0.00 | 61 | 1001.5 |
| 20260505003058 | 14 | 116 | 1.6 | 3.2 | 0.00 | 0.03 | 0.00 | 61 | 1001.4 |
| 20260505002556 | 14 | 116 | 1.6 | 4.8 | 0.00 | 0.03 | 0.00 | 59 | 1001.4 |
| 20260505002057 | 14 | 116 | 1.6 | 4.8 | 0.00 | 0.03 | 0.00 | 59 | 1001.5 |
| 20260505001557 | 14 | 58 | 1.6 | 3.2 | 0.00 | 0.03 | 0.00 | 57 | 1001.5 |
| 20260505001056 | 15 | 58 | 0.0 | 4.8 | 0.00 | 0.03 | 0.00 | 59 | 1001.5 |
| 20260505000555 | 15 | 58 | 0.0 | 4.8 | 0.00 | 0.03 | 0.00 | 60 | 1001.5 |
| 20260505000106 | 15 | 58 | 1.6 | 4.8 | 0.00 | 0.03 | 0.00 | 53 | 1001.5 |
| 20260504235555 | 15 | 58 | 0.0 | 6.4 | 0.00 | 0.03 | 0.00 | 51 | 1001.3 |
| 20260504235056 | 15 | 58 | 3.2 | 9.7 | 0.00 | 0.03 | 0.00 | 50 | 1001.3 |
| 20260504234622 | 16 | 53 | 3.2 | 9.7 | 0.00 | 0.03 | 0.00 | 49 | 1001.4 |
| 20260504234054 | 17 | 69 | 3.2 | 9.7 | 0.00 | 0.03 | 0.00 | 45 | 1001.4 |
| 20260504233554 | 19 | 46 | 4.8 | 12.9 | 0.00 | 0.03 | 0.00 | 41 | 1001.3 |
| 20260504233057 | 21 | 35 | 3.2 | 12.9 | 0.00 | 0.03 | 0.00 | 37 | 1001.3 |
| 20260504232554 | 23 | 185 | 1.6 | 11.3 | 0.00 | 0.03 | 0.00 | 34 | 1001.3 |
| 20260504232054 | 23 | 232 | 4.8 | 11.3 | 0.00 | 0.03 | 0.00 | 33 | 1001.2 |
| 20260504231602 | 23 | 223 | 1.6 | 12.9 | 0.00 | 0.03 | 0.00 | 33 | 1001.1 |
| 20260504231054 | 23 | 221 | 6.4 | 19.3 | 0.00 | 0.03 | 0.00 | 33 | 1001.1 |
| 20260504230558 | 23 | 232 | 12.9 | 22.5 | 0.00 | 0.03 | 0.00 | 31 | 1001.2 |
| 20260504230057 | 23 | 227 | 11.3 | 17.7 | 0.00 | 0.03 | 0.00 | 32 | 1001.1 |
| 20260504225654 | 23 | 225 | 8.0 | 17.7 | 0.00 | 0.03 | 0.00 | 33 | 1001.2 |
| 20260504225053 | 23 | 215 | 11.3 | 19.3 | 0.00 | 0.03 | 0.00 | 32 | 1001.1 |
| 20260504224552 | 23 | 228 | 8.0 | 14.5 | 0.00 | 0.03 | 0.00 | 32 | 1000.9 |
| 20260504224056 | 23 | 218 | 8.0 | 16.1 | 0.00 | 0.03 | 0.00 | 31 | 1000.9 |
| 20260504223552 | 23 | 246 | 6.4 | 19.3 | 0.00 | 0.03 | 0.00 | 32 | 1001.0 |
| 20260504223050 | 23 | 219 | 8.0 | 19.3 | 0.00 | 0.03 | 0.00 | 32 | 1001.1 |
| 20260504222549 | 23 | 256 | 8.0 | 17.7 | 0.00 | 0.03 | 0.00 | 34 | 1001.2 |
| 20260504222049 | 23 | 221 | 4.8 | 22.5 | 0.00 | 0.03 | 0.00 | 33 | 1001.1 |
| 20260504221557 | 23 | 248 | 9.7 | 22.5 | 0.00 | 0.03 | 0.00 | 32 | 1001.2 |
| 20260504221049 | 23 | 225 | 12.9 | 20.9 | 0.00 | 0.03 | 0.00 | 32 | 1001.2 |
| 20260504220548 | 23 | 222 | 8.0 | 16.1 | 0.00 | 0.03 | 0.00 | 35 | 1001.1 |
| 20260504220048 | 23 | 215 | 6.4 | 14.5 | 0.00 | 0.03 | 0.00 | 33 | 1001.1 |
| 20260504215548 | 23 | 150 | 4.8 | 22.5 | 0.00 | 0.03 | 0.00 | 34 | 1001.1 |
| 20260504215046 | 23 | 211 | 4.8 | 22.5 | 0.00 | 0.03 | 0.00 | 35 | 1001.2 |
| 20260504214545 | 23 | 232 | 8.0 | 20.9 | 0.00 | 0.03 | 0.00 | 35 | 1001.4 |
| 20260504214044 | 23 | 234 | 8.0 | 20.9 | 0.00 | 0.03 | 0.00 | 35 | 1001.3 |
| 20260504213544 | 23 | 188 | 12.9 | 19.3 | 0.00 | 0.03 | 0.00 | 33 | 1001.4 |
| 20260504213043 | 23 | 238 | 8.0 | 25.7 | 0.00 | 0.03 | 0.00 | 36 | 1001.4 |
| 20260504212544 | 23 | 246 | 11.3 | 25.7 | 0.00 | 0.03 | 0.00 | 35 | 1001.5 |
| 20260504212041 | 23 | 221 | 12.9 | 25.7 | 0.00 | 0.03 | 0.00 | 34 | 1001.4 |
| 20260504211549 | 23 | 227 | 16.1 | 25.7 | 0.00 | 0.03 | 0.00 | 34 | 1001.5 |
| 20260504211041 | 23 | 138 | 9.7 | 24.1 | 0.00 | 0.03 | 0.00 | 34 | 1001.5 |
| 20260504210541 | 23 | 163 | 8.0 | 24.1 | 0.00 | 0.03 | 0.00 | 36 | 1001.7 |
| 20260504210059 | 22 | 209 | 11.3 | 33.8 | 0.00 | 0.03 | 0.00 | 36 | 1001.7 |
| 20260504205539 | 22 | 245 | 17.7 | 33.8 | 0.00 | 0.03 | 0.00 | 35 | 1001.7 |
| 20260504205042 | 22 | 236 | 12.9 | 35.4 | 0.00 | 0.03 | 0.00 | 35 | 1001.7 |
| 20260504204547 | 22 | 229 | 17.7 | 35.4 | 0.00 | 0.03 | 0.00 | 36 | 1001.7 |
| 20260504204038 | 22 | 234 | 17.7 | 30.6 | 0.00 | 0.03 | 0.00 | 35 | 1001.6 |
| 20260504203539 | 22 | 231 | 12.9 | 30.6 | 0.00 | 0.03 | 0.00 | 37 | 1001.7 |
| 20260504203043 | 22 | 230 | 12.9 | 30.6 | 0.00 | 0.03 | 0.00 | 36 | 1001.8 |
| 20260504202537 | 22 | 220 | 6.4 | 30.6 | 0.00 | 0.03 | 0.00 | 38 | 1001.8 |
| 20260504202037 | 22 | 237 | 16.1 | 30.6 | 0.00 | 0.03 | 0.00 | 35 | 1001.9 |
| 20260504201540 | 22 | 232 | 17.7 | 33.8 | 0.00 | 0.03 | 0.00 | 35 | 1002.0 |
| 20260504201035 | 22 | 252 | 17.7 | 33.8 | 0.00 | 0.03 | 0.00 | 36 | 1002.1 |
| 20260504200534 | 22 | 248 | 19.3 | 29.0 | 0.00 | 0.03 | 0.00 | 35 | 1002.2 |
| 20260504200034 | 23 | 202 | 8.0 | 22.5 | 0.00 | 0.03 | 0.00 | 37 | 1002.1 |
| 20260504195534 | 22 | 242 | 9.7 | 27.4 | 0.00 | 0.03 | 0.00 | 38 | 1002.3 |
| 20260504195033 | 22 | 241 | 11.3 | 27.4 | 0.00 | 0.03 | 0.00 | 37 | 1002.2 |
| 20260504194548 | 22 | 244 | 9.7 | 25.7 | 0.00 | 0.03 | 0.00 | 37 | 1002.4 |
| 20260504194030 | 22 | 246 | 14.5 | 33.8 | 0.00 | 0.03 | 0.00 | 35 | 1002.5 |
| 20260504193529 | 22 | 156 | 11.3 | 33.8 | 0.00 | 0.03 | 0.00 | 37 | 1002.6 |
| 20260504193030 | 22 | 241 | 20.9 | 32.2 | 0.00 | 0.03 | 0.00 | 37 | 1002.7 |
| 20260504192527 | 22 | 242 | 17.7 | 27.4 | 0.00 | 0.03 | 0.00 | 37 | 1002.7 |
| 20260504192029 | 21 | 243 | 16.1 | 32.2 | 0.00 | 0.03 | 0.00 | 38 | 1002.9 |
| 20260504191532 | 22 | 235 | 19.3 | 35.4 | 0.00 | 0.03 | 0.00 | 38 | 1002.8 |
| 20260504191025 | 22 | 239 | 17.7 | 35.4 | 0.00 | 0.03 | 0.00 | 39 | 1002.9 |
| 20260504190525 | 21 | 220 | 22.5 | 33.8 | 0.00 | 0.03 | 0.00 | 39 | 1003.0 |
| 20260504190024 | 21 | 280 | 17.7 | 29.0 | 0.00 | 0.03 | 0.00 | 38 | 1003.0 |
| 20260504185527 | 21 | 252 | 12.9 | 35.4 | 0.00 | 0.03 | 0.00 | 41 | 1003.1 |
| 20260504185024 | 21 | 222 | 19.3 | 46.7 | 0.00 | 0.03 | 0.00 | 41 | 1003.1 |
| 20260504184528 | 21 | 266 | 19.3 | 46.7 | 0.00 | 0.03 | 0.00 | 41 | 1003.3 |
| 20260504184022 | 21 | 263 | 22.5 | 35.4 | 0.00 | 0.03 | 0.00 | 40 | 1003.3 |
| 20260504183523 | 21 | 221 | 14.5 | 30.6 | 0.00 | 0.03 | 0.00 | 42 | 1003.4 |
| 20260504183019 | 21 | 245 | 16.1 | 30.6 | 0.00 | 0.03 | 0.00 | 42 | 1003.4 |
| 20260504182518 | 21 | 273 | 16.1 | 30.6 | 0.00 | 0.03 | 0.00 | 43 | 1003.4 |
| 20260504182018 | 21 | 245 | 22.5 | 33.8 | 0.00 | 0.03 | 0.00 | 43 | 1003.5 |
| 20260504181519 | 21 | 218 | 14.5 | 35.4 | 0.00 | 0.03 | 0.00 | 44 | 1003.6 |
| 20260504181018 | 20 | 235 | 24.1 | 33.8 | 0.00 | 0.03 | 0.00 | 44 | 1003.6 |
| 20260504180518 | 21 | 271 | 19.3 | 30.6 | 0.00 | 0.03 | 0.00 | 42 | 1003.6 |
| 20260504180019 | 21 | 200 | 14.5 | 24.1 | 0.00 | 0.03 | 0.00 | 44 | 1003.7 |
| 20260504175515 | 21 | 255 | 16.1 | 24.1 | 0.00 | 0.03 | 0.00 | 45 | 1003.6 |
| 20260504175014 | 20 | 240 | 9.7 | 22.5 | 0.00 | 0.03 | 0.00 | 47 | 1003.6 |
| 20260504174512 | 20 | 218 | 8.0 | 29.0 | 0.00 | 0.03 | 0.00 | 48 | 1003.7 |
| 20260504174012 | 20 | 277 | 14.5 | 24.1 | 0.00 | 0.03 | 0.00 | 45 | 1003.8 |
| 20260504173511 | 20 | 260 | 16.1 | 24.1 | 0.00 | 0.03 | 0.00 | 46 | 1003.9 |
| 20260504173015 | 20 | 252 | 11.3 | 32.2 | 0.00 | 0.03 | 0.00 | 46 | 1003.9 |
| 20260504172510 | 20 | 244 | 14.5 | 38.6 | 0.00 | 0.03 | 0.00 | 47 | 1004.1 |
| 20260504172009 | 20 | 257 | 20.9 | 38.6 | 0.00 | 0.03 | 0.00 | 46 | 1004.1 |
| 20260504171509 | 19 | 209 | 19.3 | 33.8 | 0.00 | 0.03 | 0.00 | 46 | 1004.0 |
| 20260504171012 | 19 | 237 | 14.5 | 30.6 | 0.00 | 0.03 | 0.00 | 47 | 1004.0 |
| 20260504170509 | 19 | 227 | 14.5 | 30.6 | 0.00 | 0.03 | 0.00 | 48 | 1004.2 |
| 20260504151046 | 17 | 238 | 6.4 | 22.5 | 0.00 | 0.03 | 0.00 | 53 | 1004.8 |
| 20260504150547 | 17 | 202 | 9.7 | 22.5 | 0.00 | 0.03 | 0.00 | 51 | 1004.9 |
| 20260504141037 | 15 | 239 | 16.1 | 30.6 | 0.00 | 0.03 | 0.00 | 51 | 1005.0 |
| 20260504140537 | 15 | 196 | 9.7 | 25.7 | 0.00 | 0.03 | 0.00 | 52 | 1005.0 |
| 20260504130527 | 14 | 213 | 12.9 | 25.7 | 0.00 | 0.03 | 0.00 | 52 | 1005.5 |
| 20260504110507 | 11 | 262 | 6.4 | 16.1 | 0.00 | 0.03 | 0.00 | 55 | 1005.5 |
| 20260504100503 | 11 | 211 | 6.4 | 16.1 | 0.00 | 0.03 | 0.00 | 56 | 1005.3 |
| 20260504081554 | 10 | 226 | 6.4 | 17.7 | 0.00 | 0.03 | 0.00 | 59 | 1006.1 |
| 20260504081053 | 10 | 171 | 8.0 | 17.7 | 0.00 | 0.03 | 0.00 | 59 | 1006.1 |
| 20260504080553 | 10 | 162 | 6.4 | 19.3 | 0.00 | 0.03 | 0.00 | 59 | 1006.1 |
| 20260504050527 | 11 | 219 | 4.8 | 9.7 | 0.00 | 0.03 | 0.00 | 56 | 1007.4 |
| 20260504045525 | 12 | 229 | 6.4 | 12.9 | 0.00 | 0.03 | 0.00 | 55 | 1007.4 |
| 20260504045025 | 12 | 221 | 4.8 | 12.9 | 0.00 | 0.03 | 0.00 | 55 | 1007.4 |
| 20260504044524 | 12 | 222 | 6.4 | 12.9 | 0.00 | 0.03 | 0.00 | 55 | 1007.5 |
| 20260504044024 | 12 | 225 | 6.4 | 12.9 | 0.00 | 0.03 | 0.00 | 55 | 1007.4 |
| 20260504043526 | 12 | 202 | 6.4 | 12.9 | 0.00 | 0.03 | 0.00 | 55 | 1007.5 |
| 20260504043021 | 12 | 240 | 6.4 | 12.9 | 0.00 | 0.03 | 0.00 | 55 | 1007.4 |
| 20260504042520 | 12 | 186 | 4.8 | 11.3 | 0.00 | 0.03 | 0.00 | 55 | 1007.3 |
| 20260504042019 | 12 | 209 | 4.8 | 11.3 | 0.00 | 0.03 | 0.00 | 56 | 1007.4 |